Location: *
(18.5200°S, 46.4500°E)
Time: 21:51:24
(UTC+00:00)

USA 234 - Pass Details

Date: 19 July 2019
Orbit: 1101 x 1107 km, 123.0° (Epoch: 22 August)

Event Time Altitude Azimuth Distance (km) Brightness Sun altitude
Exits shadow 15:08:48 - 142° (SE) 3,561 5.4 -8.3°
Reaches altitude 10° 15:10:19 10° 141° (SE) 2,977 5.0 -8.7°
Maximum altitude 15:16:54 85° 54° (NE) 1,116 3.3 -10.1°
Drops below altitude 10° 15:23:28 10° 324° (NW) 2,958 6.4 -11.6°
Sets 15:25:56 0° 323° (NW) 3,911 7.1 -12.2°
